Regional Weather Roundup
Issued by NWS

Home | Current Version | Previous Version | Text Only | Print | Product List | Glossary On
Versions: 1 2 3 4 5 6 7 8 9 10 11 12 13 14 15 16 17 18 19 20 21 22 23 24 25
000
ASUS45 KCYS 180310
RWRWY

WYOMING REGIONAL WEATHER ROUNDUP
NATIONAL WEATHER SERVICE CHEYENNE WY
800 PM MST SAT FEB 17 2018

NOTE:  "FAIR" INDICATES FEW OR NO CLOUDS BELOW 12,000 FEET
WITH NO SIGNIFICANT WEATHER AND/OR OBSTRUCTIONS TO VISIBILITY.

WYZ001-180400-
YELLOWSTONE NATIONAL PARK

CITY           SKY/WX    TMP DP  RH WIND       PRES   REMARKS
LK YELLOWSTONE   N/A     23  21  92 VRB6      29.60F WCI  16
W YELLOWSTONE  NOT AVBL

$$
WYZ002>013-054>058-071-098>099-180400-
NORTHERN WYOMING

CITY           SKY/WX    TMP DP  RH WIND       PRES   REMARKS
JACKSON        FLURRIES  30  25  80 SW16      29.71F WCI  19
CODY           FAIR      39  23  52 SW22G38   29.48F WCI  29
GREYBULL       FAIR      28  22  78 SE3       29.54F
WORLAND        FAIR      27  20  75 E7        29.55F WCI  19
SHERIDAN       FAIR      25  20  81 S3        29.51F
BUFFALO        FAIR      34  19  54 SE7       29.49F WCI  28
GILLETTE       FAIR      40  21  46 SW23G30   29.51F WCI  30
HULETT         CLOUDY    23  18  80 CALM      29.59F
NEWCASTLE      FAIR      32  19  59 SE18      29.65F WCI  20

$$
WYZ014>020-022>026-101>103-180400-
CENTRAL WYOMING

CITY           SKY/WX    TMP DP  RH WIND       PRES   REMARKS
BIG PINEY      FAIR      31  12  45 SW14      29.78F WCI  21
PINEDALE       CLOUDY    32  18  55 S14       29.79F WCI  22
DUBOIS           N/A    N/A N/A N/A MISG        N/A
LANDER         MOCLDY    43  17  35 S13G36    29.60F
RIVERTON       FAIR      39  15  37 SW13G20   29.61F WCI  31
CASPER         FAIR      41  11  29 SW26G35   29.65F
DOUGLAS        FAIR      45  11  25 W29G43    29.64F

$$
WYZ021-027>030-104>119-180400-
SOUTHERN WYOMING

CITY           SKY/WX    TMP DP  RH WIND       PRES   REMARKS
EVANSTON       FAIR      35  11  36 SW16      29.84F WCI  25
FORT BRIDGER   FAIR      39   9  28 SW23G32   29.86F WCI  28
ROCK SPRINGS   FAIR      35   7  31 SW10      29.84F WCI  27
DIXON          FAIR      35  12  37 S15G26    29.95F WCI  26
RAWLINS        MOCLDY    38   8  29 SW18G35   29.83F WCI  28
SARATOGA       FAIR      34  14  44 S12       29.89F WCI  25
LARAMIE        FAIR      34   7  32 SW22G28   29.83F WCI  22
CHEYENNE       FAIR      34  11  38 SW3       29.83F
TORRINGTON     FAIR      40  16  37 CALM      29.75F
PINE BLUFFS    FAIR      37  14  38 MISG      29.82F

$$




USA.gov is the U.S. government's official web portal to all federal, state and local government web resources and services.